30.06.2024;15:00;2
30.06.2024;14:00;3
30.06.2024;13:00;1
30.06.2024;12:00;2
30.06.2024;11:00;4
30.06.2024;10:00;5
30.06.2024;09:00;2
30.06.2024;08:00;1
30.06.2024;07:00;1
30.06.2024;06:00;4
30.06.2024;05:00;7
30.06.2024;04:00;10
30.06.2024;03:00;15
30.06.2024;02:00;24
30.06.2024;01:00;45
30.06.2024;00:00;48
29.06.2024;23:00;47
29.06.2024;22:00;45
29.06.2024;21:00;42
29.06.2024;20:00;42
29.06.2024;19:00;43
29.06.2024;18:00;55
29.06.2024;17:00;60
29.06.2024;16:00;52
29.06.2024;15:00;37
29.06.2024;14:00;26
29.06.2024;13:00;20
29.06.2024;12:00;14
29.06.2024;11:00;8
29.06.2024;10:00;3
29.06.2024;09:00;3
29.06.2024;08:00;2
29.06.2024;07:00;2
29.06.2024;06:00;2
29.06.2024;05:00;2
29.06.2024;04:00;2
29.06.2024;03:00;2
29.06.2024;02:00;2
29.06.2024;01:00;2
29.06.2024;00:00;4
28.06.2024;23:00;6
28.06.2024;22:00;6
28.06.2024;21:00;7
28.06.2024;20:00;6
28.06.2024;19:00;8
28.06.2024;18:00;11
28.06.2024;17:00;15
28.06.2024;16:00;14
